This demonstration page uses our WeatherBlox Daily Observations layout. Learn more.

38.89511, -77.03637

Hourly Observations for January 2, 2018

Temp ( °F °C ) Dew Point ( °F °C ) Humidity (%) Winds ( mph kmh ) Pressure ( in mb ) Visibility ( mi km ) Precip ( " mm )
12:52 am 00:52 Clear 14 -10 -3 -19.4 47 47 WNW 7 11 30.55 1035 10 16.0934 0 0
1:52 am 01:52 Clear 14 -10 -3 -19.4 47 47 NW 7 11 30.56 1035 10 16.0934 0 0
2:52 am 02:52 Clear 14 -10 -3 -19.4 47 47 NW 7 11 30.56 1035 10 16.0934 0 0
3:52 am 03:52 Clear 14 -10 -3 -19.4 47 47 NW 9 15 30.58 1035 10 16.0934 0 0
4:52 am 04:52 Clear 14 -10 -2 -18.9 49 49 W 8 13 30.58 1036 10 16.0934 0 0
5:52 am 05:52 Clear 13 -10.6 -2 -18.9 51 51 W 6 9 30.59 1036 10 16.0934 0 0
6:52 am 06:52 Clear 13 -10.6 -2 -18.9 51 51 NW 8 13 30.6 1036 10 16.0934 0 0
7:52 am 07:52 Sunny 13 -10.6 -2 -18.9 51 51 NW 12 19 30.61 1037 10 16.0934 0 0
8:52 am 08:52 Sunny 15 -9.4 -2 -18.9 46 46 WNW 12 19 30.62 1037 10 16.0934 0 0
9:52 am 09:52 Sunny 17 -8.3 -2 -18.9 43 43 WNW 13 20 30.63 1037 10 16.0934 0 0
10:52 am 10:52 Sunny 19 -7.2 -2 -18.9 39 39 WNW 14 22 30.63 1037 10 16.0934 0 0
11:52 am 11:52 Sunny 21 -6.1 -2 -18.9 36 36 VRB 7 11 30.58 1036 10 16.0934 0 0
12:52 pm 12:52 Sunny 22 -5.6 -2 -18.9 35 35 SW 7 11 30.54 1034 10 16.0934 0 0
1:52 pm 13:52 Sunny 25 -3.9 -2 -18.9 30 30 WNW 12 19 30.5 1033 10 16.0934 0 0
2:52 pm 14:52 Sunny 26 -3.3 -2 -18.9 29 29 WSW 9 15 30.48 1032 10 16.0934 0 0
3:52 pm 15:52 Sunny 26 -3.3 -2 -18.9 29 29 W 8 13 30.47 1032 10 16.0934 0 0
4:52 pm 16:52 Sunny 25 -3.9 -1 -18.3 32 32 W 8 13 30.45 1031 10 16.0934 0 0
5:52 pm 17:52 Clear 24 -4.4 0 -17.8 35 35 WSW 5 7 30.44 1031 10 16.0934 0 0
6:52 pm 18:52 Mostly Clear 22 -5.6 2 -16.7 42 42 SSW 8 13 30.45 1031 10 16.0934 0 0
7:52 pm 19:52 Mostly Clear 21 -6.1 2 -16.7 43 43 SW 6 9 30.45 1031 10 16.0934 0 0
8:52 pm 20:52 Mostly Clear 21 -6.1 5 -15 50 50 SSW 6 9 30.44 1031 10 16.0934 0 0
9:52 pm 21:52 Mostly Clear 21 -6.1 6 -14.4 52 52 SW 3 6 30.43 1031 10 16.0934 0 0
10:52 pm 22:52 Mostly Clear 20 -6.7 6 -14.4 55 55 SSW 5 7 30.42 1030 10 16.0934 0 0
11:52 pm 23:52 Mostly Clear 21 -6.1 5 -15 50 50 SW 3 6 30.41 1030 10 16.0934 0 0

Powered by AerisWeather